#timestamp,LO_Frequency,Hit,Temp,Hum 
1478790015.9,286047084.7,N,0.0,0.0
1478790035.7,286047085.0,N,0.0,0.0
1478790055.5,286047087.5,N,0.0,0.0
1478790075.4,286047084.7,N,0.0,0.0
1478790095.2,286047087.3,N,0.0,0.0
1478790115.0,286047087.6,N,0.0,0.0
1478790115.9,286047087.6,N,0.0,0.0
1478790135.8,286047089.2,N,0.0,0.0
1478790155.6,286047088.9,N,0.0,0.0
1478790175.4,286047088.5,N,0.0,0.0
1478790195.3,286047089.3,N,0.0,0.0
1478790215.1,286047091.4,N,0.0,0.0
1478790235.9,286047092.1,N,0.0,0.0
1478790255.7,286047090.2,N,0.0,0.0
1478790275.5,286047088.9,N,0.0,0.0
1478790295.4,286047086.8,N,0.0,0.0
1478790315.2,286047086.6,N,0.0,0.0
1478790335.0,286047086.5,N,0.0,0.0
1478790335.9,286047086.5,N,0.0,0.0
1478790355.8,286047089.6,N,0.0,0.0
1478790375.6,286047087.0,N,0.0,0.0
1478790395.5,286047084.6,N,0.0,0.0
1478790415.3,286047087.4,N,0.0,0.0
1478790435.1,286047087.2,N,0.0,0.0
1478790455.9,286047088.2,N,0.0,0.0
1478790475.7,286047088.9,N,0.0,0.0
1478790495.5,286047086.2,N,0.0,0.0
1478790515.4,286047086.9,N,0.0,0.0
1478790535.2,286047086.3,N,0.0,0.0
1478790555.1,286047088.9,N,0.0,0.0
1478790556.0,286047088.9,N,0.0,0.0
1478790575.8,286047088.1,N,0.0,0.0
1478790595.6,286047090.1,N,0.0,0.0
1478790615.5,286047089.8,N,0.0,0.0
1478790635.3,286047090.0,N,0.0,0.0
1478790655.1,286047088.1,N,0.0,0.0
1478790675.9,286047090.8,N,0.0,0.0
1478790695.7,286047088.2,N,0.0,0.0
1478790715.6,286047088.8,N,0.0,0.0
1478790735.4,286047088.3,N,0.0,0.0
1478790755.2,286047086.3,N,0.0,0.0
1478790775.1,286047090.2,N,0.0,0.0
1478790776.0,286047090.2,N,0.0,0.0
1478790795.8,286047086.8,N,0.0,0.0
1478790815.6,286047086.6,N,0.0,0.0
1478790835.5,286047086.5,N,0.0,0.0
1478790855.3,286047086.8,N,0.0,0.0
1478790875.2,286047086.3,N,0.0,0.0
1478790895.9,286047090.3,N,0.0,0.0
1478790915.7,286047090.3,N,0.0,0.0
1478790935.6,286047090.6,N,0.0,0.0
1478790955.4,286047089.5,N,0.0,0.0
1478790975.2,286047091.2,N,0.0,0.0
1478790995.1,286047091.2,N,0.0,0.0
1478790996.0,286047091.2,N,0.0,0.0
1478791015.8,286047093.5,N,0.0,0.0
1478791035.7,286047093.2,N,0.0,0.0
1478791055.5,286047089.7,N,0.0,0.0
1478791075.3,286047090.7,N,0.0,0.0
1478791095.2,286047091.6,N,0.0,0.0
1478791115.9,286047088.1,N,0.0,0.0
1478791135.7,286047088.6,N,0.0,0.0
1478791155.6,286047089.0,N,0.0,0.0
1478791175.4,286047088.8,N,0.0,0.0
1478791195.2,286047086.2,N,0.0,0.0
1478791215.1,286047089.1,N,0.0,0.0
1478791216.0,286047089.1,N,0.0,0.0
1478791235.8,286047089.5,N,0.0,0.0
1478791255.7,286047090.2,N,0.0,0.0
1478791275.5,286047090.6,N,0.0,0.0
1478791295.3,286047089.7,N,0.0,0.0
1478791315.2,286047090.5,N,0.0,0.0
1478791335.0,286047090.2,N,0.0,0.0
1478791335.9,286047090.2,N,0.0,0.0
1478791355.7,286047093.2,N,0.0,0.0
1478791375.6,286047093.7,N,0.0,0.0
1478791395.4,286047091.3,N,0.0,0.0
1478791415.3,286047091.7,N,0.0,0.0
1478791435.1,286047091.3,N,0.0,0.0
1478791436.0,286047091.3,N,0.0,0.0
1478791455.8,286047090.1,N,0.0,0.0
1478791475.7,286047090.2,N,0.0,0.0
1478791495.5,286047090.2,N,0.0,0.0
1478791515.3,286047089.3,N,0.0,0.0
1478791535.2,286047089.6,N,0.0,0.0
1478791555.0,286047088.8,N,0.0,0.0
1478791555.9,286047088.8,N,0.0,0.0
1478791575.8,286047092.2,N,0.0,0.0
1478791595.6,286047090.7,N,0.0,0.0
1478791615.4,286047095.6,N,0.0,0.0
1478791635.3,286047091.4,N,0.0,0.0
1478791655.1,286047091.2,N,0.0,0.0
1478791675.8,286047093.3,N,0.0,0.0
1478791695.7,286047089.6,N,0.0,0.0
1478791715.5,286047096.3,N,0.0,0.0
1478791735.4,286047090.9,N,0.0,0.0
1478791755.2,286047095.4,N,0.0,0.0
1478791775.0,286047095.3,N,0.0,0.0
1478791775.9,286047095.3,N,0.0,0.0
1478791795.8,286047092.8,N,0.0,0.0
1478791815.6,286047093.9,N,0.0,0.0
1478791835.4,286047091.0,N,0.0,0.0
1478791855.3,286047089.5,N,0.0,0.0
1478791875.1,286047089.3,N,0.0,0.0
1478791895.8,286047092.4,N,0.0,0.0
1478791915.7,286047090.2,N,0.0,0.0
1478791935.5,286047089.4,N,0.0,0.0
1478791955.4,286047091.7,N,0.0,0.0
1478791975.2,286047092.3,N,0.0,0.0
1478791995.0,286047089.8,N,0.0,0.0
1478791995.9,286047089.8,N,0.0,0.0
1478792015.8,286047091.2,N,0.0,0.0
1478792035.6,286047095.1,N,0.0,0.0
1478792055.4,286047095.4,N,0.0,0.0
1478792075.3,286047097.2,N,0.0,0.0
1478792095.1,286047096.0,N,0.0,0.0
1478792115.9,286047093.9,N,0.0,0.0
1478792135.7,286047093.8,N,0.0,0.0
1478792155.5,286047088.2,N,0.0,0.0
1478792175.4,286047089.5,N,0.0,0.0
1478792195.2,286047090.8,N,0.0,0.0
1478792215.0,286047090.7,N,0.0,0.0
1478792215.9,286047090.7,N,0.0,0.0
1478792235.8,286047090.3,N,0.0,0.0
1478792255.6,286047088.6,N,0.0,0.0
1478792275.5,286047092.3,N,0.0,0.0
1478792295.3,286047088.1,N,0.0,0.0
1478792315.1,286047090.0,N,0.0,0.0
1478792335.9,286047090.2,N,0.0,0.0
1478792355.7,286047090.6,N,0.0,0.0
1478792375.5,286047090.0,N,0.0,0.0
1478792395.4,286047090.2,N,0.0,0.0
1478792415.2,286047087.8,N,0.0,0.0
1478792435.0,286047090.3,N,0.0,0.0
1478792436.0,286047090.3,N,0.0,0.0
1478792455.8,286047090.5,N,0.0,0.0
1478792475.6,286047089.3,N,0.0,0.0
1478792495.5,286047092.4,N,0.0,0.0
1478792515.3,286047089.5,N,0.0,0.0
1478792535.1,286047090.7,N,0.0,0.0
1478792555.9,286047090.7,N,0.0,0.0
1478792575.7,286047093.3,N,0.0,0.0
1478792595.5,286047087.8,N,0.0,0.0
1478792615.4,286047088.9,N,0.0,0.0
1478792635.2,286047091.8,N,0.0,0.0
1478792655.1,286047089.9,N,0.0,0.0
1478792656.0,286047089.9,N,0.0,0.0
1478792675.8,286047088.2,N,0.0,0.0
1478792695.6,286047089.8,N,0.0,0.0
1478792715.5,286047090.7,N,0.0,0.0
1478792735.3,286047089.3,N,0.0,0.0
1478792755.1,286047089.6,N,0.0,0.0
1478792775.9,286047091.0,N,0.0,0.0
1478792795.7,286047092.3,N,0.0,0.0
1478792815.6,286047089.4,N,0.0,0.0
1478792835.4,286047091.0,N,0.0,0.0
1478792855.2,286047092.4,N,0.0,0.0
1478792875.1,286047089.7,N,0.0,0.0
1478792876.0,286047089.7,N,0.0,0.0
1478792895.8,286047089.7,N,0.0,0.0
1478792915.6,286047092.2,N,0.0,0.0
1478792935.5,286047088.1,N,0.0,0.0
1478792955.3,286047092.2,N,0.0,0.0
1478792975.1,286047088.0,N,0.0,0.0
1478792995.9,286047088.0,N,0.0,0.0
1478793015.7,286047086.2,N,0.0,0.0
1478793035.6,286047088.5,N,0.0,0.0
1478793055.4,286047089.1,N,0.0,0.0
1478793075.2,286047087.9,N,0.0,0.0
1478793095.1,286047090.3,N,0.0,0.0
1478793096.0,286047090.3,N,0.0,0.0
1478793115.8,286047089.4,N,0.0,0.0
1478793135.6,286047090.5,N,0.0,0.0
1478793155.5,286047089.0,N,0.0,0.0
1478793175.3,286047090.8,N,0.0,0.0
1478793195.2,286047090.7,N,0.0,0.0
1478793215.9,286047090.7,N,0.0,0.0
1478793235.7,286047092.4,N,0.0,0.0
1478793255.6,286047091.5,N,0.0,0.0
1478793275.4,286047091.1,N,0.0,0.0
1478793295.2,286047090.9,N,0.0,0.0
1478793315.1,286047092.4,N,0.0,0.0
1478793316.0,286047092.4,N,0.0,0.0
1478793335.8,286047091.2,N,0.0,0.0
1478793355.7,286047092.4,N,0.0,0.0
1478793375.5,286047090.4,N,0.0,0.0
1478793395.3,286047090.4,N,0.0,0.0
1478793415.2,286047087.7,N,0.0,0.0
1478793435.0,286047089.4,N,0.0,0.0
1478793435.9,286047089.4,N,0.0,0.0
1478793455.7,286047092.3,N,0.0,0.0
1478793475.6,286047088.0,N,0.0,0.0
1478793495.4,286047089.0,N,0.0,0.0
1478793515.3,286047088.8,N,0.0,0.0
1478793535.1,286047089.2,N,0.0,0.0
1478793536.0,286047089.2,N,0.0,0.0
1478793555.8,286047088.9,N,0.0,0.0
1478793575.7,286047090.7,N,0.0,0.0
1478793595.5,286047090.0,N,0.0,0.0
